DECAYED

STARLINK-5391, 54833 (Decayed)

Orbit data source: Space-Track

STARLINK-5391, 54833 was a payload satellite owned by SpaceX/Seattle (US) in LEO that was launched on Wed, 28 Dec 2022 UTC via an FALCON 9 launch vehicle from the Air Force Eastern Test Range (AFETR). Payload-class satellites include a variety of spacecraft equipped with specific instruments for various scientific and technological missions. These include communications satellites like Starlink; space stations such as the ISS; scientific satellites like the Hubble; Earth observation satellites from companies like Planet Labs, Umbra, and HawkEye 360; GPS; miniature CubeSats for education and research; and military/defense satellites.

Not visible in the next 10 days
Identifier
54833, 2022-177P
Orbit
Decayed
Country
Flag of USUS
Related business
Manufacturer
SpaceX/Seattle
Mission
Decayed Commercial Communications
Bus & Motor
STARLINK, Unknown motor
Mass
305 kg wet, ~290 kg dry
Launch date (UTC)
2022-12-28 (3 years ago)
Launch vehicle
FALCON 9
Launch site
Air Force Eastern Test Range (AFETR)
Object type
Payload
Rocket body
Debris
Shape & HBR
Box + 1 Pan, 10.1 m
Radar Cross Section
13.562 m², Large (>1 m²)

Expand to show TLE details & history
Last TLE update: 4 months ago

TLE from 4 months ago
0 STARLINK-5391
1 54833U 22177P   26050.57274609  .07149719  92666-5  71136-3 0  9998
2 54833  42.9836 196.6102 0003625 292.3013  67.7494 16.37127833174637
Epoch: 2026-02-19T13:44Z
TLE epoch observation values (Epoch: 2026-02-19T13:44:45.262Z)
Latitude
-0.00001°
Longitude
-159.10051°
Altitude
172.318 km
Speed
7.805 km/s
True Right ascension
13h 06m 26s
True Declination
0° 00' 00"
Sunlit
Object was in full shadow at epoch
Visualization orbit readout
Latitude
Unknown
Longitude
Unknown
Altitude
Unknown
Speed
Unknown
Apparent Right ascension
Unknown
Apparent Declination
Unknown
Sunlit
N/A
Visualization observer readout
Local Sidereal Time
21:23:55
Azimuth
Unknown
Elevation
Unknown
Doppler factor
Unknown
Orbital elements
Apogee altitude
177.869 km
Perigee altitude
173.118 km
Semi-major axis
6,553.631 km
Eccentricity
0.00036
Inclination
42.9836°
RAAN
196.6102°
Arg. of periapsis
292.3013°
True anomaly
67.78785°
Mean anomaly
67.7494°
Eccentric anomaly
67.76863°
Mean motion
4.09091 °/min
Orbital period
88 mins
BSTAR
0.00071136
Loading maneuver chart data...
Computing Atmospheric mass density...
Loading historical data...
Loading historical data...
Loading historical data...
Loading historical data...
Loading historical data...
Loading historical data...
Loading historical data...

Documentation

Showing up to 5 results
|